Theta_e
323 324 326 327 329 332 331 328 328 329 328 321 321 323 322 325 325 324 324 324 323 324 324 323 326 328 330 330 332 331 332 334 334 331 330 342 338 336 342 339 342 342 340 341 341 341 339 339 340 337 337 336 326 319 314 321 335 337 335 333 333 332 332 333 335 336 336 336 336 336 337 337 337 337 337 335 335 335 337 336 335 334 334 335 335 335 336 336 336 336 335 334 333 333 333 332 331
322 324 326 328 329 331 330 328 327 327 325 321 322 325 323 325 325 324 325 324 324 325 325 325 326 328 329 329 329 331 332 332 333 336 339 341 337 339 340 339 342 341 340 341 341 340 339 339 339 337 337 337 329 321 315 320 334 336 335 334 332 333 333 334 336 336 337 337 337 337 337 337 338 337 337 336 336 336 336 335 334 333 333 334 333 333 334 335 335 334 334 333 332 331 330 328 327
322 323 327 330 331 330 329 329 328 324 324 320 320 326 325 325 325 325 325 324 323 322 325 326 326 328 329 329 329 331 333 331 331 334 340 339 340 341 339 340 341 341 340 340 341 339 340 340 339 338 336 339 333 324 316 321 333 335 335 335 332 335 336 336 337 337 338 338 338 338 338 337 337 337 337 337 337 337 336 334 333 332 332 332 332 332 332 333 334 333 332 332 331 331 328 323 322
322 324 329 332 332 331 332 331 330 326 324 320 319 326 327 324 325 325 325 324 322 321 325 327 327 328 328 331 331 331 332 332 333 334 340 341 342 341 339 341 341 341 340 341 341 338 341 340 339 339 337 339 335 327 320 320 330 333 335 335 334 337 339 338 338 338 338 338 338 337 337 337 337 337 337 337 337 336 334 333 332 331 331 330 329 332 332 331 331 332 332 332 330 331 329 322 320
323 326 331 332 332 331 332 332 332 329 326 323 321 326 326 325 325 325 324 323 323 322 325 327 328 329 328 330 330 331 332 333 336 337 341 342 342 341 339 341 341 341 340 341 340 339 341 340 340 340 338 338 336 330 324 320 324 327 331 335 336 337 339 339 339 338 338 339 337 337 337 337 337 337 337 336 336 335 333 332 332 330 329 329 328 331 332 330 330 330 331 331 330 331 329 325 322
324 328 331 331 331 329 331 332 331 330 329 328 326 326 326 324 324 324 324 324 324 321 324 327 328 330 330 330 331 332 333 334 338 338 341 342 341 340 339 340 341 341 340 341 340 340 341 340 340 340 339 338 336 332 327 322 318 319 324 334 337 336 338 338 339 338 337 338 337 337 336 336 336 336 335 335 334 333 333 332 331 329 328 329 328 330 331 328 328 329 330 331 330 330 330 327 323
325 329 330 331 331 330 332 332 329 330 331 330 328 328 327 325 323 323 325 326 324 322 323 325 326 330 332 331 332 333 332 335 338 339 341 342 340 339 340 340 341 341 340 341 340 340 341 340 339 340 339 337 336 333 329 323 316 314 319 331 335 336 337 337 338 337 336 336 336 336 335 335 335 334 334 333 333 332 331 331 330 329 328 328 327 329 330 329 329 329 330 330 330 330 329 328 325
326 328 330 332 333 333 334 333 332 331 331 330 328 328 327 326 324 324 326 327 326 325 324 324 326 329 332 332 333 335 333 335 336 338 340 341 340 339 340 340 341 341 340 341 340 340 341 339 339 340 338 337 337 334 330 323 316 313 316 328 335 335 336 336 336 337 337 335 335 335 334 335 334 333 333 332 331 330 330 329 329 329 328 328 327 327 328 329 329 330 330 329 330 330 329 328 327
326 329 329 331 333 334 333 333 333 333 332 330 329 327 327 326 325 326 327 327 326 326 325 325 326 329 330 331 332 334 335 336 335 337 340 340 340 339 339 340 340 340 340 341 340 340 341 339 340 340 338 338 337 334 331 324 317 314 315 325 333 335 335 335 336 337 337 336 335 334 333 333 333 332 331 330 329 330 329 328 328 328 327 327 327 327 327 328 329 330 330 329 329 329 329 327 326
325 328 329 331 332 333 332 332 333 333 333 331 330 329 328 327 326 327 327 328 327 326 325 324 325 328 329 329 331 334 336 337 337 339 340 340 339 339 339 340 340 340 340 341 339 340 341 340 340 340 338 338 337 335 330 325 320 317 317 320 326 332 335 335 335 336 335 334 334 333 333 332 332 331 330 329 328 328 328 327 327 327 327 327 327 326 327 327 328 330 330 329 328 328 328 326 325
325 327 329 330 331 331 330 330 331 333 333 332 330 330 328 328 327 327 327 327 327 326 326 324 326 328 328 328 329 335 336 337 340 341 339 339 339 339 339 340 340 340 340 340 339 340 341 340 340 340 338 339 337 335 330 327 323 318 319 318 318 323 331 335 334 334 334 333 332 331 332 331 331 331 330 328 327 327 326 326 327 327 327 327 327 326 327 327 327 328 329 329 329 328 328 326 323
326 328 328 329 330 329 329 328 330 333 333 333 332 330 328 327 328 328 328 328 327 327 326 326 327 327 329 329 330 336 336 338 340 340 339 338 339 339 339 340 340 340 340 340 339 339 341 340 340 340 339 339 337 334 331 331 326 320 320 320 319 317 322 331 331 331 330 331 331 330 330 330 330 330 330 328 326 326 326 326 327 327 327 327 327 327 327 327 327 327 328 329 329 328 327 327 325
325 328 329 329 329 328 328 327 328 331 331 332 332 330 328 328 329 329 330 329 328 329 327 326 327 327 328 329 332 335 336 339 340 339 339 338 339 339 339 340 339 340 340 340 339 339 341 340 340 340 339 339 337 334 334 334 329 323 323 322 322 320 319 324 327 328 328 327 325 328 329 327 329 329 329 328 326 326 326 325 327 327 327 327 327 327 327 327 327 326 327 327 328 328 327 327 327
323 327 328 327 328 329 328 327 328 328 329 329 331 328 327 329 329 329 329 330 330 329 326 324 326 327 327 329 331 333 337 338 339 339 339 339 339 339 339 339 339 340 339 339 339 339 341 341 340 340 339 339 338 335 335 336 331 325 325 325 324 324 323 322 326 328 328 327 323 326 328 326 327 328 328 327 326 327 326 324 326 327 327 328 327 326 326 327 327 326 327 326 326 327 327 327 327
323 326 328 328 328 329 327 327 328 327 327 327 329 327 326 328 327 328 329 330 329 325 323 323 326 327 328 330 330 332 339 338 338 339 338 339 339 339 339 339 339 340 339 339 338 339 341 341 341 340 340 339 338 337 336 336 334 328 327 328 327 327 326 320 323 328 328 327 326 327 328 326 326 327 327 327 327 327 326 324 324 326 327 327 327 326 326 326 326 326 327 325 325 326 326 326 326
322 326 327 328 326 327 327 327 327 327 327 327 327 326 327 328 327 328 326 326 327 322 322 324 325 327 328 330 331 333 339 339 338 339 339 339 339 338 339 339 339 339 340 339 338 339 340 341 341 340 340 340 339 338 337 336 335 331 329 330 329 328 327 322 322 327 328 326 327 329 327 327 326 325 327 327 326 326 326 325 324 325 326 327 327 325 325 326 326 326 326 325 325 325 325 326 326
320 326 326 326 324 323 325 327 326 325 326 327 325 325 329 328 325 324 320 321 325 323 322 324 326 327 329 331 332 334 338 338 338 339 339 339 339 338 339 339 339 339 339 339 338 339 340 341 341 341 340 340 340 339 338 337 335 332 330 331 330 330 328 325 323 325 328 326 326 330 327 326 327 325 326 326 326 326 325 325 325 326 327 327 326 324 324 325 325 325 325 325 324 324 323 323 323
319 324 323 324 322 321 323 326 326 325 326 327 325 325 327 327 325 323 321 321 323 323 322 323 325 328 331 333 334 336 338 338 339 339 339 339 338 339 339 339 339 339 339 339 339 338 339 340 341 341 341 341 340 339 338 337 336 334 333 333 331 331 329 328 326 323 327 328 325 329 329 327 327 327 326 325 326 326 325 326 325 325 326 327 327 326 325 325 324 325 325 324 325 325 323 324 323
317 320 321 321 320 320 323 325 325 326 326 326 326 325 325 326 326 323 324 326 323 323 323 322 323 327 332 334 336 338 337 338 339 338 339 339 338 339 338 339 339 339 339 339 339 338 339 340 340 341 340 341 340 340 339 338 337 335 335 335 332 332 330 329 329 325 326 328 327 328 328 327 327 327 327 326 326 326 325 325 325 325 325 326 327 327 327 326 325 325 325 325 325 325 325 326 326
314 316 320 318 318 321 323 324 324 325 325 326 327 325 325 326 327 324 325 327 324 324 325 324 323 325 333 334 336 338 337 338 338 338 339 338 338 339 338 339 339 338 339 338 339 338 338 339 340 340 339 340 340 340 339 338 338 337 336 336 334 333 332 331 330 328 328 329 328 327 328 328 327 327 327 326 325 326 325 325 325 325 325 325 326 326 326 326 325 325 325 325 325 325 326 326 325
314 315 317 317 319 320 321 322 322 322 322 324 326 326 327 326 326 324 326 327 326 327 326 325 325 325 333 333 335 337 338 338 338 338 338 338 338 338 339 339 339 339 338 338 339 338 338 339 339 339 339 339 340 339 339 338 338 337 337 336 335 334 334 333 331 329 330 330 328 328 328 328 327 327 327 326 325 325 325 325 324 324 324 324 325 326 325 325 325 325 325 325 325 324 324 324 324
313 314 314 315 317 318 319 319 319 318 319 321 324 327 326 326 326 326 328 329 328 329 326 325 325 325 332 333 335 337 337 338 338 338 338 338 338 339 339 338 339 339 338 338 339 339 338 338 339 339 338 338 339 339 338 338 337 338 337 336 336 335 334 333 331 330 330 329 329 328 328 327 327 327 327 326 325 325 325 325 324 324 324 324 324 325 325 324 324 324 324 324 324 324 324 323 323
311 312 312 313 314 315 315 315 315 315 317 319 321 323 323 324 327 327 328 328 328 327 324 323 322 323 331 334 335 335 335 336 337 338 338 338 338 339 339 338 339 338 338 338 338 339 338 338 339 339 338 338 340 339 338 338 337 337 337 336 335 335 334 333 331 330 330 330 329 328 328 327 327 327 327 326 326 325 326 325 325 324 324 324 324 324 325 324 324 324 324 324 324 324 324 323 323
309 310 311 312 312 312 312 312 313 312 314 315 317 319 320 324 326 326 327 328 328 324 321 324 326 326 331 333 334 335 335 336 337 338 337 337 338 338 339 338 338 338 338 338 338 338 338 338 339 339 338 337 340 339 338 338 337 337 336 336 335 335 334 332 330 330 330 329 329 328 327 327 327 327 327 327 326 326 326 326 325 325 325 325 324 324 325 324 324 323 323 324 324 324 324 324 323
307 307 308 309 309 309 309 310 310 310 311 312 314 316 319 321 323 324 325 326 327 323 319 325 329 329 331 332 333 335 335 337 338 338 337 337 337 337 338 338 338 338 338 338 338 338 338 338 338 339 338 337 338 339 338 338 337 336 336 336 335 335 333 331 330 329 329 329 328 328 327 327 327 327 327 327 327 326 326 326 325 325 325 325 324 324 324 324 323 323 324 323 324 324 324 323 323
308 308 307 308 308 308 308 308 309 309 310 311 313 315 317 318 320 323 324 323 325 324 322 324 329 331 332 332 333 334 334 336 337 337 337 337 337 337 337 337 338 338 338 337 337 337 337 337 337 338 338 337 338 339 338 337 337 336 336 336 335 335 333 331 330 329 329 329 328 328 328 327 327 327 327 327 327 327 326 326 326 325 325 325 325 325 325 324 324 324 324 324 324 324 323 323 323
310 310 310 310 309 309 309 309 309 309 310 311 312 313 313 315 319 322 323 323 324 325 325 324 326 329 331 332 332 334 334 335 337 337 337 337 337 337 337 337 337 337 337 337 337 337 336 337 337 336 336 337 338 339 338 336 337 337 336 336 335 335 333 331 330 329 329 329 329 328 328 328 328 328 327 327 327 327 326 326 326 326 326 326 326 326 326 325 325 325 325 325 324 324 324 323 323
310 310 311 311 310 310 310 309 309 309 309 309 310 311 312 314 318 321 321 323 324 325 325 325 327 327 328 331 332 333 334 336 337 337 336 337 337 337 336 337 337 337 337 337 337 337 337 336 336 336 336 336 337 339 338 337 336 336 336 336 335 335 333 331 329 329 329 329 328 329 328 328 328 328 328 328 327 327 327 326 326 326 326 326 326 326 326 326 326 326 326 325 325 324 324 323 323
308 309 310 310 310 310 310 310 310 309 308 309 309 309 310 312 315 317 319 322 323 324 324 325 327 328 327 329 331 332 334 336 337 337 337 337 336 336 336 336 336 336 336 337 336 336 336 336 336 336 336 336 336 337 338 338 336 336 335 335 334 334 332 330 329 329 329 329 329 329 328 329 328 328 328 328 328 327 327 327 326 326 326 326 326 326 326 326 326 326 326 325 325 324 324 323 323
306 307 309 310 310 311 310 310 310 310 308 309 310 307 305 307 310 312 315 319 322 323 324 324 326 328 329 329 330 332 333 335 335 336 336 336 336 336 336 336 336 336 336 336 336 336 336 336 336 336 336 336 336 335 336 337 337 336 335 334 334 333 331 330 329 329 329 329 329 329 328 329 329 329 328 329 328 328 327 327 326 326 326 326 326 326 325 326 325 325 325 325 324 324 323 323 323
305 305 307 310 311 312 310 309 310 311 309 309 309 307 305 306 307 309 312 317 319 319 320 321 323 327 329 330 332 332 333 334 335 335 336 336 336 336 336 336 336 336 336 335 335 335 335 335 335 336 336 335 335 335 335 335 336 336 335 334 333 333 331 330 329 329 328 328 329 329 329 329 329 328 329 329 329 328 328 327 327 326 326 326 326 326 325 325 325 325 325 325 324 324 323 323 323
304 304 304 307 311 312 310 310 310 309 309 308 308 307 307 307 307 309 312 317 318 318 318 319 321 324 327 328 329 329 331 333 335 335 335 336 336 336 336 336 336 336 336 336 335 335 335 335 334 335 335 335 335 334 334 334 335 335 334 334 333 332 331 330 329 328 328 328 328 329 329 329 329 329 329 329 329 329 329 328 328 327 326 326 326 326 325 325 325 325 325 325 325 324 324 324 323
302 304 303 304 308 310 310 311 310 309 309 308 307 307 307 307 309 311 312 314 314 315 317 320 321 322 325 325 326 326 327 331 333 334 335 335 336 336 336 336 336 336 336 335 335 335 334 334 334 334 334 335 335 334 333 333 333 334 333 333 332 332 331 330 329 328 328 328 328 328 329 329 329 329 329 329 329 329 329 329 328 328 327 326 326 326 325 325 325 325 325 325 325 325 325 325 324
302 303 304 303 305 309 311 311 310 309 309 309 308 307 306 306 309 310 311 313 312 311 312 316 319 320 323 324 325 325 325 327 331 334 334 334 335 336 336 336 335 336 336 336 335 335 335 334 333 333 333 334 334 334 334 333 333 332 332 332 331 332 331 330 329 328 328 327 328 328 329 329 329 329 329 329 329 329 329 329 329 328 327 327 327 326 326 325 325 325 325 325 325 325 325 325 325
301 301 303 304 306 309 310 311 311 309 309 310 310 309 309 308 308 309 309 311 313 314 315 317 318 320 322 323 323 323 324 324 326 333 335 333 334 335 335 335 335 336 336 336 336 336 335 334 333 332 333 333 333 333 333 333 333 332 331 331 330 330 330 330 329 329 328 328 327 328 328 329 329 329 329 329 329 329 329 329 329 328 328 327 327 327 326 326 325 324 324 325 325 325 325 324 325
301 301 303 305 307 307 308 310 310 308 309 311 311 311 312 312 312 311 312 311 311 313 314 316 317 319 321 322 322 322 323 322 323 332 335 334 334 334 335 335 335 335 336 336 336 335 336 335 334 333 332 332 332 332 332 331 331 331 330 329 329 329 328 329 329 329 329 328 327 327 328 328 328 328 328 329 329 328 329 329 329 328 328 328 327 327 326 326 326 325 325 325 325 325 324 324 325
303 303 304 305 305 305 306 308 309 308 310 312 311 311 310 311 311 311 312 312 312 312 311 312 314 316 318 320 322 321 322 322 326 332 334 334 334 334 334 334 335 335 335 336 336 336 336 336 336 335 333 332 332 331 331 330 330 329 329 328 328 328 328 328 329 329 329 329 328 328 328 328 328 327 327 328 328 328 328 329 329 329 328 328 327 327 327 327 327 326 326 325 325 325 325 325 325
305 305 305 305 305 306 306 307 308 310 311 312 311 312 311 311 311 311 311 312 313 313 312 313 313 314 316 318 320 322 321 324 328 331 333 334 335 333 332 333 334 335 335 335 336 336 336 336 336 336 335 333 332 332 331 331 330 330 329 329 330 330 329 329 329 329 329 329 329 329 328 328 328 328 327 327 327 328 328 328 329 329 328 328 328 328 328 328 328 327 326 326 325 325 326 326 325
306 306 305 305 305 307 306 308 309 310 312 311 311 313 313 312 313 313 314 314 314 314 314 315 316 316 317 317 319 322 323 323 325 327 330 332 335 334 333 332 333 334 335 335 335 336 336 336 336 336 336 335 334 333 332 332 331 331 331 331 331 331 331 331 330 330 330 330 329 329 329 329 329 329 328 327 327 328 328 328 328 328 328 328 328 328 329 329 328 328 327 327 327 326 326 326 326
306 305 304 305 307 308 307 308 309 308 310 311 311 312 312 311 312 312 313 314 315 315 315 316 318 318 319 319 320 322 324 324 323 324 328 330 333 334 333 333 333 333 334 334 334 335 335 336 336 336 336 336 336 335 334 333 332 332 332 332 332 332 332 332 332 331 331 331 331 331 330 330 330 329 329 329 329 329 328 328 328 328 328 328 329 330 330 330 329 328 328 328 327 327 326 326 326
305 305 306 308 308 307 306 306 307 308 309 310 311 311 311 310 310 310 311 313 314 316 316 317 319 320 320 321 323 323 324 324 324 324 325 327 330 332 333 333 332 332 333 333 333 334 334 335 335 336 336 336 336 336 335 335 334 334 333 333 332 333 333 333 333 333 333 333 332 332 332 331 331 331 331 331 330 330 329 329 329 329 329 328 329 329 330 330 330 329 329 329 328 328 328 327 326
306 306 307 308 307 306 306 307 308 309 310 310 310 311 312 311 311 311 311 311 312 315 318 319 320 321 322 322 323 323 322 323 324 323 324 325 326 327 329 331 332 332 332 332 332 332 333 334 334 334 335 335 335 335 336 336 335 335 335 334 334 333 334 334 334 334 334 334 334 333 332 333 333 333 332 332 332 331 331 330 330 329 329 329 329 329 329 329 330 330 329 330 329 328 329 328 328
306 307 307 308 307 306 307 308 308 310 311 309 309 311 312 311 311 311 311 312 312 313 316 320 321 321 321 320 318 317 317 319 319 319 319 321 323 325 326 328 330 331 331 331 332 332 332 333 333 333 333 334 335 335 335 335 336 336 335 335 335 335 335 335 335 335 334 334 334 334 334 333 333 334 334 333 333 333 332 332 331 330 330 329 329 329 329 329 329 329 329 329 329 328 328 328 328
306 307 308 308 307 307 308 308 308 309 309 308 309 311 311 311 310 310 310 311 313 313 314 316 316 315 314 312 311 311 311 311 312 312 311 313 316 320 322 324 326 327 328 329 331 332 331 331 332 332 333 333 333 333 334 334 334 335 335 336 335 335 335 335 335 335 334 334 334 335 334 334 333 334 334 334 334 334 333 332 332 331 330 330 330 329 329 329 328 329 329 329 329 328 328 327 328
307 307 307 307 306 307 307 307 307 308 308 309 310 311 311 310 310 309 309 311 312 312 311 309 308 308 307 307 307 308 307 307 307 307 307 308 310 312 315 319 322 324 326 328 330 330 328 329 330 330 329 329 330 331 332 333 333 334 335 335 335 335 335 335 335 335 334 334 334 334 334 334 334 334 334 333 333 334 333 333 332 332 331 331 330 330 329 328 328 328 328 328 328 328 328 327 327
307 306 307 308 307 306 305 306 307 307 309 310 308 309 310 309 308 308 308 309 308 308 307 305 304 304 305 304 305 305 306 306 306 305 306 307 307 308 309 311 314 316 320 325 328 328 328 328 328 327 326 326 326 328 330 331 332 333 333 334 334 335 335 335 335 335 334 334 334 334 334 334 333 333 333 333 332 332 332 332 332 332 331 331 330 330 329 329 329 328 328 328 328 328 327 327 327
306 306 308 310 309 307 305 305 306 307 310 309 306 306 308 309 308 307 306 305 304 304 303 303 302 302 303 303 303 303 304 304 305 304 305 306 306 306 306 306 308 308 310 315 318 322 325 326 326 325 324 325 325 327 329 330 331 332 333 333 334 334 334 335 335 334 334 334 334 334 333 333 333 333 333 333 332 332 332 332 332 332 332 331 331 330 330 329 329 329 328 328 328 328 327 327 326
306 307 309 309 310 309 307 305 305 308 310 309 305 305 307 309 307 305 303 302 302 302 301 301 301 301 302 302 302 302 303 303 303 304 304 305 305 306 306 305 306 306 306 307 309 311 315 318 322 324 323 324 325 326 327 329 330 331 332 332 333 333 334 334 334 334 334 333 333 333 333 333 333 333 333 332 332 332 332 332 332 332 332 331 331 330 330 329 329 329 329 328 328 328 327 327 326
307 308 309 309 309 309 309 308 307 309 310 308 305 303 305 307 304 302 301 301 301 300 300 300 300 300 301 301 302 302 302 302 302 303 303 303 304 305 305 305 305 305 305 305 305 306 308 310 313 316 319 321 324 325 326 328 329 330 331 332 332 333 333 333 333 333 334 333 333 333 332 332 332 332 332 332 332 332 332 332 332 332 331 331 331 330 330 329 329 329 329 328 328 328 327 327 326
306 308 309 308 309 310 310 309 309 310 310 307 303 303 306 306 303 301 300 300 300 300 300 300 300 300 300 300 301 301 301 301 302 302 302 302 303 304 304 304 304 304 304 304 305 305 305 307 308 309 312 314 318 322 326 328 329 330 330 331 331 332 332 332 332 332 333 333 333 333 332 332 332 332 331 331 331 331 331 332 331 331 331 331 330 330 330 329 329 329 329 328 328 328 327 326 326
306 307 308 308 308 309 310 309 309 309 309 307 304 306 309 308 304 301 300 300 299 299 299 300 300 300 300 300 300 300 300 300 301 301 301 302 303 303 303 303 303 303 303 303 303 304 305 306 306 307 308 309 311 315 319 324 327 329 330 330 331 331 331 331 332 332 332 332 333 333 332 332 332 331 331 331 331 330 330 331 330 331 331 331 330 330 330 329 329 329 329 328 328 327 327 327 326
306 305 307 307 306 307 309 309 309 309 309 308 307 308 308 307 305 302 300 299 298 299 299 299 300 300 300 300 299 300 300 300 300 301 301 301 302 302 302 302 302 302 302 302 302 303 304 304 305 305 306 307 308 309 311 315 320 325 328 330 331 331 331 331 331 331 332 332 332 333 332 332 332 331 331 331 331 330 330 330 330 330 330 330 330 330 329 329 329 329 328 328 327 327 327 327 326
303 303 303 304 304 306 309 309 308 308 309 309 309 309 307 307 307 301 298 298 298 298 299 299 299 299 299 299 299 299 299 299 300 300 300 301 301 301 301 301 301 301 301 301 301 302 302 303 303 304 304 305 306 307 308 310 313 317 322 326 329 330 331 331 331 331 331 332 332 332 332 332 332 331 331 331 330 330 330 330 329 329 329 329 330 329 329 329 328 328 328 328 327 327 327 327 326
301 300 299 302 305 307 307 308 308 306 307 308 308 308 308 309 307 301 297 298 298 298 298 298 299 299 298 299 299 299 299 299 299 300 300 301 301 301 300 300 300 300 300 300 300 300 300 301 301 302 303 303 304 305 306 307 308 311 314 319 325 329 330 330 331 331 331 331 331 331 331 332 331 331 331 330 330 330 329 329 329 329 329 329 329 329 329 328 328 328 328 327 327 327 327 326 326
300 299 299 302 305 305 304 306 307 306 305 306 306 306 308 307 303 298 297 298 297 298 298 298 298 297 297 298 298 298 299 299 299 299 299 300 300 300 300 300 299 299 299 298 299 299 298 299 299 299 300 301 302 302 303 304 305 307 308 311 316 321 326 329 330 330 330 331 331 331 331 331 331 331 331 330 330 329 329 328 328 328 328 329 329 329 329 328 328 328 327 327 327 327 327 326 326
300 300 299 299 301 302 303 303 305 305 304 304 304 306 307 303 298 297 297 297 297 297 297 297 296 296 297 297 298 298 298 299 298 298 298 299 299 299 299 299 298 298 298 297 298 298 297 297 297 297 298 299 300 300 301 302 302 304 305 306 308 312 316 320 325 328 330 330 330 330 330 330 330 330 330 330 329 329 329 328 328 328 327 328 328 328 328 328 328 327 327 327 327 327 326 326 326
298 298 298 297 297 299 300 300 301 301 300 301 303 305 305 300 296 297 297 297 297 297 296 296 296 296 296 297 297 298 298 297 297 297 297 297 298 298 298 298 298 297 297 297 296 296 296 296 296 296 297 298 298 299 299 300 300 301 302 303 305 306 309 312 316 321 325 328 329 330 330 330 330 330 330 330 329 329 329 328 328 328 327 328 328 328 328 328 327 327 327 326 326 326 326 326 326
297 296 297 297 296 297 296 295 298 298 297 300 301 302 302 299 296 297 297 296 296 295 295 295 295 295 296 296 296 297 296 296 295 295 296 296 296 296 296 297 297 297 296 296 296 296 295 295 295 295 296 296 297 297 298 298 298 299 300 301 302 303 305 308 310 314 318 322 325 328 329 329 330 330 330 330 330 329 329 328 328 328 328 327 327 328 328 327 327 327 327 326 326 326 326 326 325
Wind_Speed
14 15 16 15 11 4 2 1 3 2 3 6 6 4 3 5 2 4 6 3 3 0 2 2 2 5 3 2 4 6 6 3 2 1 1 3 2 10 14 8 15 24 28 29 29 28 28 30 28 26 25 24 23 21 22 24 24 21 18 18 19 19 19 19 18 19 18 17 17 17 17 18 18 18 18 19 20 18 18 17 15 14 14 15 13 13 14 14 15 15 15 15 14 13 11 11 10
12 15 15 12 7 3 1 0 4 3 5 7 6 6 2 3 4 9 8 4 1 3 1 2 5 6 4 5 5 7 6 3 3 2 3 4 6 12 14 11 18 25 27 28 29 28 28 30 29 28 26 24 23 22 23 24 23 21 19 18 18 19 19 18 18 18 18 18 17 18 18 18 19 18 19 20 19 17 16 15 15 14 14 13 10 10 13 14 14 14 14 14 13 12 11 10 11
10 15 13 9 2 1 0 2 5 5 6 8 6 5 3 4 9 11 7 4 3 4 1 3 4 5 7 7 5 6 4 0 1 1 3 4 6 12 15 13 20 25 27 27 27 28 27 29 30 28 27 24 23 23 23 24 23 23 20 18 18 18 18 18 17 18 18 18 17 18 18 18 19 19 19 19 17 16 16 14 13 13 13 14 13 9 10 12 13 14 13 12 12 11 10 11 11
8 14 9 5 1 2 3 4 5 6 7 8 5 4 6 8 11 10 4 3 3 2 2 3 3 2 7 10 4 5 5 0 2 1 2 4 4 14 18 15 22 25 26 26 26 26 26 30 31 28 27 25 24 24 24 24 25 25 23 18 18 17 17 18 18 19 19 19 18 18 18 18 18 17 17 17 16 16 14 13 12 12 11 12 14 11 9 10 11 12 12 11 11 9 9 10 11
7 10 4 2 2 2 3 5 5 7 8 6 5 3 4 7 8 7 2 3 3 2 4 4 3 2 4 7 3 3 2 1 3 1 1 3 6 16 19 18 24 25 26 26 25 25 25 30 32 29 28 26 24 24 23 24 25 26 24 20 18 17 17 18 18 19 19 19 19 18 17 16 16 16 16 16 15 15 14 13 11 10 9 9 11 12 9 8 8 10 12 12 11 9 8 9 9
5 5 3 2 1 1 3 7 6 8 10 7 6 3 1 2 3 4 2 4 3 1 4 5 3 1 3 3 3 3 2 1 2 3 1 4 10 17 19 21 24 25 27 27 25 24 24 31 33 30 29 27 26 24 23 23 23 25 25 22 18 17 17 17 18 19 18 18 18 17 16 15 15 16 16 15 13 13 12 11 11 9 9 9 10 12 9 6 7 9 12 12 10 9 8 8 9
2 2 1 0 2 2 6 9 9 10 9 8 9 6 3 0 1 2 4 5 1 2 3 4 2 4 4 1 3 2 1 0 2 2 3 7 13 17 19 22 24 26 28 27 24 23 24 32 34 31 30 28 26 24 24 22 22 23 25 24 20 18 18 16 16 17 17 16 16 16 15 15 16 16 15 14 12 12 11 9 11 9 9 9 10 12 10 7 8 10 12 12 10 9 8 8 9
1 2 1 2 3 3 8 10 11 11 7 6 7 8 7 3 0 4 7 6 3 1 3 4 3 5 2 1 3 2 3 3 2 2 5 10 16 19 19 22 25 27 28 26 24 23 25 33 34 32 31 28 26 25 24 23 21 22 25 26 22 20 20 17 16 17 17 14 13 13 14 14 15 15 15 13 11 11 10 8 10 10 10 11 10 12 12 10 9 10 12 11 10 9 8 9 9
2 2 1 2 5 6 10 11 12 13 11 8 6 7 7 6 3 7 9 7 4 3 4 4 4 6 2 1 4 3 3 4 3 4 8 12 17 20 19 22 26 28 28 26 24 22 25 33 34 32 32 29 27 25 24 23 22 22 23 25 24 23 22 21 20 20 20 17 14 14 14 14 13 13 12 11 10 10 9 8 9 10 11 11 11 12 12 11 10 10 11 11 10 9 9 9 9
3 1 2 3 4 8 11 12 11 13 14 11 9 9 9 8 7 8 10 10 6 5 3 2 5 9 6 7 6 2 2 4 6 7 9 13 18 20 20 22 25 29 28 26 24 22 25 33 33 32 32 29 27 25 24 23 22 21 20 22 23 24 24 23 22 22 21 19 18 16 16 15 13 11 10 10 11 10 9 9 9 10 12 11 11 12 12 12 12 10 9 10 10 9 8 9 9
3 1 1 4 6 9 10 11 11 11 12 11 10 10 9 7 8 9 10 10 8 8 4 4 5 10 9 10 5 3 3 5 8 9 11 14 19 20 20 23 25 27 28 26 25 23 26 33 32 31 32 29 28 26 25 23 23 22 20 19 19 22 25 23 22 21 21 20 18 18 18 17 14 11 10 12 11 9 9 10 10 11 12 12 11 12 12 11 12 11 9 8 8 8 8 9 9
4 4 3 6 9 10 10 11 11 11 11 12 11 9 8 7 8 10 11 11 9 11 8 7 3 3 7 9 3 4 4 7 8 9 13 16 19 19 20 23 25 26 26 26 25 24 26 31 32 31 31 30 28 27 25 24 23 22 21 19 18 20 23 23 21 19 19 20 19 18 17 17 16 12 11 13 10 9 11 11 11 11 12 12 11 11 12 11 11 11 10 9 8 8 8 8 8
5 5 6 7 8 9 11 12 11 11 11 12 11 8 9 9 12 13 12 11 12 12 8 10 6 3 8 7 1 3 5 9 9 11 14 17 19 20 20 22 25 26 25 25 24 25 25 29 31 30 31 29 28 27 26 24 24 23 21 20 18 18 20 20 19 17 16 17 18 18 14 15 17 13 12 13 10 10 11 12 12 11 12 12 12 11 11 11 10 10 10 10 8 7 7 7 6
3 4 6 7 7 9 11 11 10 11 11 10 7 7 9 10 11 12 11 12 14 11 4 5 7 5 9 8 3 3 7 11 11 13 15 17 18 20 21 22 25 25 25 25 24 25 24 27 29 28 30 30 29 28 26 25 24 24 22 20 18 18 17 17 19 18 16 15 16 18 15 14 16 14 12 13 11 11 11 12 13 12 12 12 11 11 11 11 10 9 9 9 9 7 7 7 6
3 3 4 7 8 9 11 11 12 11 10 8 7 9 8 9 9 10 11 13 11 2 1 1 6 5 4 6 3 2 7 16 14 15 16 17 18 19 20 21 25 23 23 24 24 25 24 25 26 27 29 30 30 28 27 26 25 24 23 21 19 18 15 15 19 19 18 18 17 18 17 16 17 16 13 13 12 13 12 12 13 12 12 11 11 11 10 10 10 10 9 9 9 8 8 7 6
3 3 4 8 10 11 10 11 12 12 9 5 5 9 9 9 9 10 7 8 7 1 2 4 6 4 2 2 4 6 8 17 16 17 17 17 18 19 18 19 23 21 20 24 24 25 25 24 25 27 28 29 30 27 26 26 26 25 23 21 19 18 15 15 18 19 19 20 19 19 19 18 17 17 15 13 14 14 13 12 13 13 12 12 12 12 10 10 10 10 10 10 8 8 10 8 7
2 4 7 8 11 13 9 10 11 10 7 4 4 7 9 8 6 5 1 3 8 3 4 5 4 3 2 2 5 3 12 17 17 19 19 18 18 19 17 18 22 20 20 24 24 24 25 24 24 26 26 27 29 27 25 25 26 26 23 22 20 18 16 15 16 18 20 20 20 19 18 18 15 16 16 15 15 16 14 14 14 14 13 12 12 10 9 10 11 10 9 10 8 8 10 8 8
4 6 8 10 12 12 8 9 10 7 7 4 5 8 9 9 5 4 2 6 9 6 6 6 5 4 1 3 4 8 14 16 19 21 21 20 19 19 19 20 22 22 22 24 25 25 25 25 24 25 26 27 28 28 25 24 26 26 24 22 21 20 18 17 16 17 20 20 21 19 17 17 15 15 17 16 16 17 17 16 15 15 14 12 12 10 10 11 10 9 9 9 9 8 7 7 7
6 6 8 12 11 8 4 5 5 5 8 5 6 7 7 10 7 4 6 10 9 8 9 7 8 7 4 4 6 11 14 16 19 21 22 22 21 21 22 22 22 23 23 25 27 26 26 26 24 25 27 28 27 27 25 24 26 25 23 22 22 21 20 19 17 17 20 19 20 19 17 16 15 16 17 17 17 17 18 18 17 17 16 13 13 12 12 12 10 10 9 8 9 8 7 7 7
7 7 9 11 8 8 4 4 4 5 7 8 7 6 6 7 5 4 8 10 7 9 9 6 10 10 7 6 8 12 14 16 18 20 21 22 22 23 23 24 25 26 26 27 27 26 27 26 24 25 27 29 28 27 25 24 25 24 21 20 20 20 21 20 17 17 19 19 20 19 17 15 16 16 16 18 18 17 17 19 20 18 18 16 14 13 12 13 12 11 11 10 10 9 8 8 8
5 8 11 7 4 7 5 7 8 10 10 8 9 7 6 3 2 5 8 9 8 9 8 6 8 6 8 8 9 13 14 16 18 19 20 21 21 21 22 23 24 25 25 26 26 26 28 27 24 25 28 31 30 28 27 24 23 21 20 19 18 18 19 19 17 17 18 19 20 19 17 16 16 15 15 17 17 15 14 16 18 17 17 17 16 14 12 13 12 11 12 12 10 10 10 9 8
5 11 14 10 8 7 7 10 10 11 10 9 10 8 6 5 4 7 10 11 9 5 4 4 5 2 8 10 11 13 14 16 18 19 20 21 22 21 21 21 21 22 23 25 26 26 28 29 24 25 30 32 32 31 29 26 23 19 19 19 18 18 18 18 17 17 18 19 20 19 17 17 17 16 15 16 16 14 14 13 14 14 15 15 16 15 14 13 12 12 12 12 11 11 11 10 9
8 11 13 13 11 9 9 12 13 12 11 10 9 10 10 11 9 7 10 14 11 3 2 2 2 2 7 10 11 12 14 15 17 20 22 23 23 23 21 21 21 22 22 23 26 25 26 28 26 26 31 31 31 32 29 27 27 21 19 21 19 18 18 18 18 17 17 18 20 19 18 18 18 17 16 17 16 15 14 14 14 14 15 14 14 15 14 13 12 12 12 12 11 11 11 11 10
11 12 11 12 12 11 10 11 13 13 13 12 10 11 12 13 11 7 10 13 13 5 2 1 1 4 8 9 11 12 14 15 18 21 22 22 23 22 20 20 20 20 20 21 25 25 23 27 27 26 32 33 30 32 32 27 27 24 21 22 21 20 19 18 18 16 16 17 19 20 18 18 18 18 17 17 17 16 15 15 14 14 15 14 13 14 14 13 13 12 12 12 12 12 12 12 11
13 13 12 12 12 13 11 10 13 15 14 12 12 14 13 12 12 13 15 13 11 6 1 2 2 5 8 9 11 12 12 14 16 18 20 20 20 21 21 21 20 20 19 21 25 25 23 26 28 27 30 35 32 31 33 28 26 26 24 23 21 22 21 18 18 16 16 16 18 20 19 18 18 18 18 17 17 16 15 15 15 14 14 14 13 14 14 13 13 12 12 12 12 12 12 12 11
8 11 12 13 14 14 13 12 12 13 12 10 15 17 14 11 11 15 18 15 13 7 4 6 4 6 7 9 11 11 12 13 15 17 19 19 19 21 23 23 22 22 21 22 26 26 24 27 30 29 28 33 34 31 33 30 27 28 27 22 21 23 21 18 18 17 16 16 17 20 20 19 18 17 18 18 17 17 16 15 16 15 14 14 14 14 14 13 13 12 12 12 12 12 12 12 11
9 13 14 15 17 16 14 14 12 11 11 12 16 18 17 12 9 12 13 11 11 8 8 8 8 9 8 8 9 10 11 13 15 15 16 18 20 22 24 24 24 24 22 23 26 24 23 26 29 28 27 31 33 30 34 34 28 28 28 23 21 22 20 19 18 17 17 17 17 18 20 20 19 17 17 17 17 17 16 16 16 16 15 15 15 15 14 14 14 13 13 13 13 13 12 12 12
11 13 15 16 17 17 17 17 14 11 10 11 13 16 18 13 14 17 11 8 8 8 9 8 9 11 10 9 9 8 9 11 13 14 16 19 20 22 23 25 25 23 23 25 25 23 23 24 26 27 27 31 34 29 31 34 31 30 28 23 21 20 19 19 18 17 17 17 17 17 18 19 19 17 17 17 17 17 16 16 16 16 16 15 15 16 15 15 15 14 14 14 14 14 14 13 13
9 10 12 14 15 16 17 16 14 11 9 9 9 14 16 16 23 22 11 10 11 12 12 10 9 10 11 10 8 8 8 10 13 14 17 19 19 20 21 24 24 23 24 25 23 23 24 24 24 26 26 31 36 33 30 30 31 31 29 24 21 18 19 19 18 18 18 17 17 17 17 18 19 18 17 17 17 17 17 17 16 16 16 15 15 15 15 15 15 15 15 15 15 15 15 14 14
10 9 9 11 12 12 10 10 13 14 10 7 6 10 14 19 26 21 12 13 12 14 16 13 10 7 10 10 7 7 8 10 13 15 17 17 18 19 21 22 23 23 23 25 25 23 23 23 23 24 27 30 33 36 34 30 29 31 30 27 22 18 18 19 19 18 18 17 17 18 18 19 19 18 18 17 17 17 17 17 17 16 15 14 14 13 14 15 15 16 15 15 15 15 15 15 14
9 9 8 6 8 8 4 3 9 12 11 12 10 11 13 16 18 16 13 14 13 16 19 17 13 8 7 7 7 7 6 8 12 14 15 15 17 18 19 20 22 23 22 24 25 22 21 22 24 23 26 32 33 35 35 31 30 31 32 30 24 18 18 19 19 18 18 18 18 18 19 19 19 19 18 18 18 17 17 18 17 16 14 13 13 13 13 14 15 16 15 15 15 15 15 14 14
6 7 7 6 7 8 7 7 9 10 10 16 15 10 12 14 13 13 11 9 9 14 18 18 17 13 9 6 6 7 6 8 10 12 12 14 16 16 18 20 22 23 23 23 22 22 22 21 24 25 27 32 33 35 36 32 29 30 31 30 24 18 18 20 21 20 18 19 19 19 19 19 20 19 19 18 18 18 17 17 16 15 14 13 13 12 13 14 14 15 15 15 16 15 15 14 15
5 6 7 7 8 8 9 8 9 14 10 15 18 12 10 9 8 9 11 10 11 13 15 16 17 15 12 9 7 8 8 9 9 11 12 13 15 16 17 19 21 22 24 24 21 22 23 21 23 26 27 30 31 33 35 33 30 29 28 28 24 19 19 21 22 20 19 19 20 19 19 19 19 19 19 19 18 18 18 17 16 14 13 13 13 13 13 12 13 14 14 15 15 16 15 15 14
5 6 7 8 9 9 10 7 4 11 12 13 18 15 14 11 7 7 9 11 12 14 15 15 16 15 13 12 10 10 11 12 10 11 15 16 15 16 17 17 19 21 22 23 23 22 22 21 21 23 26 27 29 32 31 29 30 31 28 28 26 22 22 22 21 21 19 20 20 19 19 19 19 19 19 18 18 18 17 16 16 15 14 14 14 13 13 12 12 12 14 14 14 15 15 15 14
7 7 6 7 7 7 9 8 5 8 11 13 15 15 17 16 14 12 11 11 10 11 12 12 14 14 13 12 12 12 11 14 13 12 18 19 17 17 18 17 17 19 22 23 24 24 21 20 19 23 26 24 22 28 30 26 27 28 25 26 26 25 27 26 24 23 21 21 21 20 19 18 18 19 19 18 18 17 17 17 16 16 16 15 14 14 14 13 12 12 14 14 13 13 14 14 13
12 11 9 8 7 8 10 9 8 11 12 13 14 15 16 15 14 13 12 13 13 14 12 11 11 12 11 11 11 11 11 13 13 9 16 18 19 19 18 18 17 18 21 22 23 25 24 22 20 21 26 25 19 21 25 25 25 25 23 24 26 27 29 28 26 26 23 23 22 21 21 20 19 19 20 19 18 18 18 18 18 17 17 16 16 17 17 14 13 14 14 14 14 13 13 14 12
15 12 10 9 8 10 11 9 8 8 8 11 13 15 17 15 14 13 11 11 13 16 15 13 12 12 11 12 11 12 12 10 6 6 12 15 18 20 18 17 17 17 19 21 22 25 25 25 23 21 22 25 23 21 23 22 23 25 23 25 25 25 26 26 25 26 25 25 23 22 22 22 21 22 22 21 20 20 20 19 19 19 19 18 19 20 20 17 15 15 13 13 14 14 13 12 12
13 10 10 9 7 9 11 11 9 5 4 9 12 14 16 15 13 12 11 12 12 14 15 14 14 14 12 13 13 13 12 6 2 5 10 13 16 20 20 18 18 19 19 21 22 24 24 24 24 23 21 23 23 24 26 24 24 25 23 22 22 22 23 24 24 24 24 25 24 23 23 23 24 24 24 24 23 22 22 22 21 21 22 23 23 23 23 21 19 18 16 14 14 16 15 12 12
10 8 8 7 4 7 9 8 7 4 4 8 10 10 12 13 10 9 10 11 11 12 14 14 15 14 12 13 13 11 10 7 5 6 9 12 13 16 20 20 20 20 19 20 21 22 23 22 23 24 24 24 23 26 28 28 27 27 24 21 20 21 22 23 23 23 23 24 25 25 25 26 25 24 25 27 28 27 26 25 24 24 25 27 28 27 26 25 23 22 22 20 15 16 17 14 15
7 6 7 5 2 5 6 3 3 5 5 7 8 8 10 11 10 8 9 10 10 12 15 14 14 15 14 12 11 10 10 8 8 8 8 9 10 12 15 19 22 21 19 20 21 21 21 21 22 21 23 25 25 26 28 28 26 26 25 23 21 21 21 21 21 22 23 24 25 25 27 29 29 28 29 31 33 32 30 29 28 27 27 29 31 30 29 29 27 25 24 23 18 15 16 16 18
6 7 6 2 2 4 8 6 5 6 5 6 6 7 8 10 10 9 7 7 8 10 12 13 12 13 14 12 9 10 10 8 7 8 8 8 9 11 12 16 22 22 20 22 22 22 21 21 21 20 21 23 25 27 29 29 27 26 26 24 24 24 24 23 24 24 24 25 26 27 28 30 31 33 34 33 33 33 33 32 31 29 28 29 32 32 31 30 30 28 26 26 25 20 16 15 17
4 6 5 2 3 8 11 10 5 4 5 6 4 6 5 3 5 5 3 5 7 7 8 10 10 11 12 11 9 6 6 7 6 4 4 4 5 7 8 10 16 18 18 21 23 22 23 22 21 21 21 21 23 25 26 28 29 28 28 26 25 26 27 28 27 26 26 26 25 27 30 30 30 33 32 32 34 34 34 34 33 32 31 31 32 32 31 29 29 30 29 28 27 24 20 17 17
2 2 4 4 5 8 10 9 5 4 3 2 3 6 3 1 1 2 4 5 5 5 6 8 8 7 7 7 9 12 13 12 12 12 12 10 8 6 4 5 7 9 10 15 19 19 21 22 21 21 21 20 21 21 22 25 27 27 29 30 29 28 28 27 25 24 27 28 25 25 28 30 30 31 29 31 34 35 35 35 34 33 33 33 33 32 31 29 27 27 29 29 26 22 21 22 20
2 1 4 5 6 8 7 6 6 4 1 1 3 5 4 4 3 5 5 5 3 2 3 6 9 11 13 14 15 17 16 15 13 13 14 13 13 11 9 8 4 5 7 11 15 15 17 19 19 19 20 21 22 22 21 22 24 25 27 29 31 31 31 29 25 22 25 28 28 27 28 29 30 30 30 30 31 31 33 35 35 35 34 33 32 32 32 30 27 27 28 28 26 23 23 23 22
3 4 3 5 5 6 5 4 5 4 2 3 4 4 4 3 2 3 3 4 5 8 13 16 17 17 17 17 17 16 15 16 14 13 13 13 15 16 16 15 10 2 5 10 13 14 14 16 15 14 16 20 22 24 23 23 23 25 26 28 30 32 32 31 28 25 24 25 27 29 29 29 30 31 32 32 31 30 32 33 34 34 33 33 32 31 30 30 29 28 27 25 26 26 25 24 22
4 5 5 6 3 3 3 2 2 1 3 1 2 4 4 0 2 2 2 5 9 12 15 16 16 17 16 16 16 15 14 14 14 14 14 16 17 17 18 21 20 15 7 2 7 10 14 16 15 14 18 20 21 22 23 24 24 25 27 28 29 30 30 29 27 27 26 25 25 26 27 29 29 28 30 34 34 34 34 35 36 35 34 34 34 32 30 30 31 30 28 27 28 28 25 24 24
4 5 4 5 3 1 2 1 1 2 2 2 1 4 5 1 3 6 7 8 10 11 12 14 16 17 16 15 14 15 14 13 13 14 15 19 21 21 21 22 21 21 19 13 6 4 11 15 16 17 19 19 19 20 21 23 25 26 28 28 29 30 29 27 25 25 25 25 25 25 25 28 28 26 26 29 33 35 35 35 37 37 35 33 34 34 32 31 30 30 30 29 29 29 27 25 24
3 3 3 3 2 2 1 1 1 0 3 4 3 4 6 3 5 9 10 11 14 13 13 15 16 16 15 14 14 14 14 14 14 13 14 16 19 21 23 22 19 20 22 22 18 13 9 10 12 14 15 15 17 19 20 22 25 26 27 28 29 30 29 29 28 26 25 26 26 26 26 26 26 25 24 26 28 30 32 33 35 36 35 34 33 33 32 31 29 29 30 29 29 29 29 26 25
5 4 3 3 1 0 1 1 1 1 3 5 4 2 4 5 8 9 11 13 15 14 13 14 15 15 15 14 14 13 13 14 14 14 14 13 14 17 20 21 20 20 22 23 24 24 22 19 15 13 13 14 15 18 21 23 25 27 28 28 28 28 29 31 32 30 29 29 27 28 28 26 24 24 23 25 26 27 29 29 32 34 35 35 34 32 32 31 30 29 28 28 29 29 28 27 27
9 7 5 4 2 3 4 3 2 1 3 5 3 1 2 7 8 9 12 13 13 13 13 12 14 14 14 15 15 14 14 15 13 13 14 13 14 17 19 20 21 21 23 24 25 27 27 26 25 22 19 16 14 17 21 23 25 27 28 28 29 27 27 29 31 32 31 30 28 28 29 27 25 25 25 24 23 25 29 27 27 29 30 31 31 30 30 30 30 29 28 27 27 27 28 28 28
6 5 4 4 3 3 4 3 4 3 2 3 2 1 2 5 4 5 8 10 11 12 12 12 14 14 13 14 16 16 16 15 14 13 15 15 17 20 20 21 22 22 24 25 26 27 27 26 26 25 23 21 18 16 18 22 25 25 25 27 29 29 28 28 28 30 30 30 29 28 29 29 28 29 31 29 25 26 30 29 26 25 25 24 25 27 28 30 30 29 28 27 25 24 25 27 28
3 4 2 3 4 3 3 2 2 4 2 2 2 2 3 5 6 3 6 9 13 13 14 16 16 15 14 14 16 16 15 15 14 14 15 17 20 22 23 23 24 24 26 27 27 27 26 25 25 24 24 25 23 21 18 20 23 25 25 27 28 29 28 28 29 30 30 31 30 30 29 29 30 31 33 34 33 31 32 33 30 25 24 22 23 25 27 27 29 28 26 26 26 24 24 26 27
3 4 4 5 4 3 4 2 3 4 0 2 1 4 4 4 5 6 10 13 16 17 18 18 17 18 17 16 15 15 15 15 15 15 15 17 21 23 23 25 26 26 26 27 28 28 26 25 26 25 25 27 27 26 24 22 21 22 25 28 30 30 29 30 30 31 31 31 31 32 30 29 31 34 34 34 34 33 33 34 32 25 24 24 22 24 25 25 26 27 26 25 24 24 24 24 24
3 5 6 7 4 2 3 3 2 3 2 2 1 3 4 5 2 7 14 16 17 17 18 18 18 19 18 16 16 16 16 15 15 16 16 19 22 23 24 24 26 27 27 27 28 28 28 27 27 26 26 27 27 27 26 25 24 23 23 25 27 30 32 34 34 32 32 31 32 36 34 32 34 36 36 33 31 30 31 33 32 26 24 23 22 23 24 23 23 24 25 25 23 22 22 23 24
3 2 5 4 1 2 4 3 2 4 3 2 2 1 1 3 3 7 12 14 14 15 16 18 19 19 17 15 15 16 15 14 15 15 15 17 21 24 25 25 25 26 26 27 27 28 30 30 29 29 27 25 27 27 27 28 27 25 24 24 24 26 29 32 34 33 31 32 35 38 37 37 37 35 34 32 30 31 30 30 33 32 29 26 24 24 23 21 23 24 25 24 22 22 23 23 24
1 0 4 4 3 3 4 3 2 3 3 3 4 3 4 6 5 7 11 12 13 14 13 14 16 17 15 14 14 14 14 13 13 13 13 15 20 23 25 25 25 25 25 27 27 28 30 30 30 32 30 29 29 29 29 30 30 29 28 27 25 23 25 28 30 31 31 31 35 37 37 38 37 35 35 33 31 31 30 31 35 36 35 31 28 26 22 21 23 24 24 24 22 22 24 24 23
5 5 7 7 4 1 1 2 2 3 4 3 3 2 4 5 4 8 11 11 12 13 12 11 12 13 13 13 13 12 13 13 13 13 13 15 19 22 23 24 25 24 25 27 27 27 28 29 30 31 31 31 31 30 30 31 32 31 31 31 29 26 24 24 26 29 30 32 33 35 37 37 35 34 35 35 33 32 32 35 37 37 37 38 37 34 27 22 24 26 24 23 22 23 24 24 23
6 6 6 6 6 3 2 1 3 2 3 3 4 4 2 4 4 8 10 10 11 12 12 11 11 12 12 11 12 12 12 12 13 13 13 16 20 22 23 24 25 26 27 28 27 27 28 29 30 30 29 29 30 30 30 30 31 32 32 33 33 30 27 24 24 25 27 30 31 32 34 35 34 35 34 34 35 34 33 34 37 40 42 44 43 40 34 25 23 27 25 22 21 23 25 25 24
Wind_Direction
357 355 348 341 341 325 249 264 249 207 233 259 241 246 203 199 304 267 240 206 243 214 196 263 175 177 188 303 256 277 309 234 232 248 39 54 116 155 163 157 153 158 160 165 167 170 175 174 170 171 171 170 169 168 169 163 159 159 166 168 167 169 167 165 163 161 159 159 159 159 159 157 155 151 149 147 142 131 125 124 120 117 110 109 111 111 111 111 112 111 108 111 112 109 108 110 109
351 355 351 344 336 296 238 163 263 235 230 255 237 231 179 144 235 245 238 225 280 66 108 240 208 217 256 312 294 273 263 249 343 15 63 81 122 148 164 157 158 161 159 163 167 169 173 175 171 172 172 169 169 169 169 166 162 159 166 172 171 173 173 172 170 167 162 160 159 159 158 157 153 148 144 142 140 132 127 124 120 121 118 118 114 112 117 113 115 117 113 112 112 111 113 122 126
342 354 349 340 326 295 232 190 255 248 240 252 243 206 169 215 235 246 248 261 346 51 263 212 217 236 237 250 254 249 248 294 72 111 88 136 139 155 167 156 161 162 159 163 167 168 172 175 173 173 173 169 169 171 170 168 165 161 163 171 172 170 172 173 172 170 164 160 158 156 155 153 149 143 141 140 141 135 131 128 125 123 122 131 127 119 126 122 119 122 120 116 112 110 115 130 138
328 349 347 337 272 244 231 219 249 251 248 248 255 183 187 236 247 261 270 302 353 29 258 206 213 195 225 246 251 254 262 277 164 197 114 167 166 158 162 156 159 160 160 164 167 168 172 176 173 173 174 171 170 172 172 170 170 166 163 165 168 165 166 168 167 166 161 156 154 153 151 147 142 140 141 140 139 137 137 134 131 127 120 133 136 131 134 132 126 126 126 121 118 112 114 130 137
297 343 24 4 273 262 253 241 247 241 247 247 257 194 193 239 258 286 322 328 334 258 241 215 232 124 225 259 265 265 265 98 123 184 130 135 146 152 156 156 158 160 163 164 168 169 173 178 174 173 174 172 173 174 173 173 174 174 169 161 164 163 161 165 163 160 158 154 151 148 145 143 141 141 142 141 142 144 144 140 135 132 125 127 137 139 141 139 131 131 130 124 122 115 115 129 134
273 329 68 31 284 288 258 242 238 235 247 246 254 247 181 245 281 318 320 310 340 246 228 217 267 307 238 240 238 275 20 44 119 162 168 137 151 153 154 156 160 162 163 165 169 169 175 179 175 174 174 175 175 176 175 174 174 175 176 163 161 167 162 163 161 157 156 154 148 145 148 150 152 152 152 149 150 151 149 151 146 140 140 134 136 145 154 153 136 134 133 128 126 122 122 129 131
259 273 86 297 181 214 246 245 244 244 245 233 249 260 253 55 87 302 301 305 331 141 198 222 297 287 250 143 229 229 63 248 100 127 150 146 153 155 156 158 162 163 162 166 171 171 178 179 177 175 175 178 177 178 177 176 172 171 177 167 161 171 165 160 160 159 155 154 150 150 154 157 159 157 159 158 153 155 158 167 162 156 153 148 146 149 153 153 145 141 138 135 134 131 127 133 134
138 235 6 268 224 233 246 248 247 249 245 221 246 260 272 299 104 272 288 295 292 300 201 219 250 259 239 115 245 146 139 200 136 141 145 151 157 159 160 161 164 163 163 167 171 173 180 181 178 176 176 179 177 178 179 177 171 167 174 171 166 169 167 162 162 162 157 158 163 163 158 158 164 161 162 161 155 158 163 168 166 164 159 156 158 158 156 151 148 144 141 140 140 136 132 142 142
146 195 140 244 243 244 249 249 245 248 246 238 240 240 264 275 266 272 274 272 275 279 228 214 215 241 296 273 250 127 157 200 165 161 153 159 161 163 164 165 165 163 166 168 171 173 181 181 179 178 178 179 177 179 180 178 173 165 169 173 174 172 169 167 168 167 161 160 167 171 167 167 173 172 170 162 157 163 167 170 168 165 162 160 162 165 163 159 155 149 147 147 147 141 135 144 146
173 215 204 211 237 244 246 246 244 245 244 245 243 233 245 250 253 259 264 267 260 255 236 146 214 238 281 280 259 125 163 175 155 160 161 166 164 166 167 168 168 165 168 169 171 172 178 181 180 180 179 179 178 179 181 180 177 169 166 168 175 178 174 171 173 173 169 168 167 167 172 175 177 177 177 167 163 164 164 167 169 167 164 162 164 167 164 162 162 159 158 151 151 150 141 147 150
190 181 216 221 227 238 242 245 244 239 237 241 240 229 234 237 250 254 254 262 257 253 225 136 232 243 252 264 257 109 120 156 162 164 163 168 167 169 168 169 170 169 170 170 170 170 177 181 182 182 181 181 179 179 181 182 179 174 171 166 167 176 179 179 179 179 177 176 172 167 169 174 174 171 177 179 175 165 156 156 162 165 164 164 166 168 165 164 162 164 169 155 149 153 152 157 157
208 172 180 227 229 235 242 247 246 242 238 237 238 216 208 216 232 247 246 249 251 252 230 185 234 271 238 252 245 111 132 173 172 166 166 166 168 169 168 169 171 171 171 171 169 169 177 182 183 184 184 183 180 181 182 183 181 178 176 173 168 169 178 182 184 187 187 188 185 178 173 176 176 173 182 189 184 169 159 157 166 166 165 168 168 167 167 168 164 166 172 164 158 160 161 163 165
224 188 191 230 235 240 243 247 247 249 245 238 238 198 186 210 224 239 247 253 253 255 241 202 210 263 253 264 133 141 171 181 172 163 166 165 167 167 168 170 171 172 173 172 169 170 176 182 185 187 186 184 182 182 184 185 184 181 178 178 177 171 173 177 180 183 186 192 191 186 185 184 181 177 181 187 182 176 169 163 168 169 171 171 169 170 169 170 168 170 176 173 173 172 166 166 172
244 205 212 238 238 242 242 247 243 243 248 239 224 168 179 213 227 239 246 253 252 249 255 202 209 228 256 263 227 200 170 166 167 164 163 164 164 166 168 171 172 172 175 173 171 173 176 182 185 188 187 185 185 185 187 189 187 185 182 181 181 177 175 175 178 178 178 183 178 179 186 185 184 182 173 175 177 179 176 169 170 172 175 173 171 177 176 174 171 173 179 177 179 179 173 177 183
262 223 231 245 244 242 235 240 239 240 248 232 188 153 181 216 225 236 234 247 258 237 81 173 196 208 256 246 256 351 149 156 161 161 159 162 163 166 168 170 172 173 176 174 174 175 177 182 186 188 188 187 188 188 189 191 190 188 185 184 183 182 180 176 179 179 180 182 174 179 189 185 188 194 180 174 180 181 179 177 178 174 175 177 174 176 178 179 176 178 183 177 183 189 182 186 195
262 244 231 241 245 240 229 229 233 242 242 213 169 152 191 219 217 235 236 248 269 102 181 204 185 222 305 245 341 12 142 152 155 157 156 160 162 165 167 170 173 174 178 177 178 179 180 183 187 189 190 191 191 189 191 192 193 191 189 188 186 186 184 178 179 183 185 185 182 185 193 192 193 200 195 186 186 189 190 187 184 177 177 185 181 180 184 185 184 189 193 184 186 199 194 197 209
257 231 225 235 239 236 228 215 219 241 233 174 142 155 200 227 199 223 299 258 254 224 208 211 185 235 306 18 9 69 147 150 154 157 156 160 163 167 169 173 175 176 181 182 183 183 184 185 188 190 190 192 192 190 191 193 194 193 192 192 190 190 190 184 181 187 189 188 189 189 193 194 194 200 201 198 196 198 200 195 189 184 182 189 192 195 196 196 198 199 204 198 196 208 207 213 226
221 214 223 233 233 237 239 225 220 239 238 175 156 176 205 230 208 183 207 232 236 237 226 222 224 222 138 35 59 131 151 157 161 161 162 165 167 172 174 177 179 181 183 186 188 187 187 187 189 191 191 192 192 191 191 194 195 192 192 193 192 193 193 191 187 190 190 189 192 192 191 193 194 198 199 199 200 202 204 201 195 192 191 190 193 202 202 203 210 205 207 207 205 222 224 224 232
223 216 227 234 235 244 266 260 243 249 259 237 179 186 208 229 233 184 222 235 220 232 235 217 228 215 149 92 117 144 160 167 170 172 172 171 174 176 177 179 183 186 187 188 190 190 189 189 191 192 194 193 192 192 191 194 194 190 191 193 193 195 196 194 191 192 189 190 193 192 194 195 195 196 198 199 198 201 206 206 201 199 200 197 192 197 201 203 209 208 209 212 215 230 232 224 225
230 227 234 237 249 253 264 348 350 340 312 278 238 204 204 225 230 185 223 237 210 225 235 212 229 220 166 135 144 157 171 178 182 185 183 181 181 180 180 182 185 189 190 190 190 191 190 190 192 193 196 196 194 193 192 193 192 190 192 195 195 196 197 195 193 192 189 191 193 193 197 198 196 195 200 205 203 203 208 212 210 206 207 209 203 200 204 206 212 215 216 220 222 227 224 224 227
229 228 235 241 301 272 279 358 5 3 359 323 294 248 223 245 237 212 224 228 214 223 235 236 252 228 163 157 166 169 178 186 192 196 194 191 189 187 188 188 190 191 190 191 191 192 192 192 192 194 197 199 198 196 194 194 191 190 193 195 196 197 197 196 197 196 192 194 195 195 200 202 201 197 200 206 207 205 207 211 212 212 212 215 214 210 211 215 220 222 223 226 226 225 226 230 233
256 246 249 266 301 295 315 345 348 350 349 341 325 286 287 317 265 235 233 233 233 217 208 239 273 238 164 168 173 175 187 193 196 201 201 199 196 194 193 192 193 192 191 193 194 193 194 194 192 194 198 200 201 198 196 196 192 191 195 196 196 198 200 199 201 200 196 197 198 199 203 206 205 201 201 203 205 205 202 203 206 209 211 214 216 215 215 219 222 224 226 227 227 228 231 235 238
257 255 260 274 290 299 318 327 326 335 328 325 325 306 315 309 278 254 240 243 252 254 112 181 255 185 164 169 175 181 193 198 200 203 204 205 202 198 196 194 193 193 194 195 196 195 194 196 196 196 198 199 200 199 198 197 196 195 196 198 199 199 201 202 204 203 200 200 201 202 204 207 207 205 205 205 206 207 205 205 207 208 210 213 214 213 216 219 222 226 227 227 230 232 234 239 245
258 262 271 283 296 300 310 318 314 318 309 305 308 303 303 291 288 290 263 257 261 265 92 104 96 150 159 167 183 191 196 200 205 206 207 210 209 206 201 198 197 196 197 197 198 196 195 198 197 197 200 200 197 199 202 200 198 199 200 202 203 201 201 206 208 205 203 203 204 205 206 207 208 209 208 208 209 210 211 210 211 212 213 214 213 213 217 220 223 228 228 230 233 236 239 244 248
257 263 275 287 293 291 294 296 297 301 297 300 298 288 285 288 301 292 272 269 269 269 219 224 153 152 171 179 192 198 200 202 208 209 210 212 212 210 208 204 201 199 201 200 200 199 198 200 200 198 200 202 200 200 203 203 201 201 202 203 204 204 204 207 210 206 205 206 207 207 207 209 210 212 211 210 211 214 215 214 215 217 215 215 215 217 219 221 224 228 230 232 234 238 243 246 248
261 273 281 287 289 289 290 283 280 283 284 294 292 284 281 291 307 287 268 262 261 257 249 240 209 188 191 194 198 200 205 203 204 209 209 211 211 211 212 209 205 204 204 201 201 201 202 203 203 200 198 201 201 200 203 204 203 203 205 206 205 207 207 207 208 207 206 207 207 207 208 211 212 213 212 211 213 215 217 218 220 219 218 217 218 221 222 224 226 229 232 234 236 240 244 247 250
292 296 295 291 287 287 285 280 277 276 279 280 279 280 282 287 287 269 258 256 249 233 232 236 232 225 207 205 209 203 210 208 201 204 207 208 211 212 213 212 211 210 206 204 203 202 203 204 204 202 200 201 201 201 204 207 206 203 206 209 207 208 209 209 210 209 208 208 208 208 209 212 214 214 213 213 214 217 218 221 222 220 221 222 223 226 226 227 229 232 234 235 239 243 247 249 249
301 305 302 294 288 283 274 270 269 268 271 267 270 277 277 276 259 249 248 258 256 247 241 230 236 242 228 215 212 208 212 210 200 200 205 207 210 212 213 214 213 212 210 208 205 203 204 204 204 202 202 204 204 201 201 206 209 208 208 208 208 209 209 211 211 210 209 210 209 208 210 212 214 215 215 215 217 219 221 223 224 223 223 224 226 229 229 232 233 235 238 240 242 245 248 249 248
298 298 298 296 292 283 271 263 256 250 253 256 268 274 264 249 248 249 249 257 261 264 261 250 244 253 249 233 218 217 209 201 198 203 209 209 211 213 215 216 214 213 214 212 207 207 207 205 206 204 204 206 208 207 203 204 208 210 210 207 207 207 208 212 213 212 211 210 210 210 210 211 212 214 216 216 218 219 222 226 228 227 227 226 228 230 232 234 236 238 241 243 245 246 247 248 249
283 282 288 298 294 284 277 260 243 236 234 229 235 258 251 241 246 252 253 250 256 263 263 261 250 246 256 250 235 228 211 198 198 205 210 208 210 214 217 217 216 216 216 215 212 209 208 208 208 207 207 208 210 211 211 210 209 210 211 210 209 207 209 214 215 215 214 212 213 213 212 212 212 213 215 216 217 219 222 227 229 231 231 229 230 231 233 234 235 238 239 241 244 244 245 246 248
280 284 281 279 279 279 283 259 240 233 217 200 214 252 252 247 251 251 246 240 243 255 260 261 253 235 237 246 243 241 224 215 212 208 207 207 209 212 217 216 215 217 215 215 215 211 209 209 209 209 208 211 213 212 212 213 211 211 214 214 214 212 213 217 217 217 217 215 215 216 215 214 214 214 215 216 218 220 222 226 228 230 230 230 231 230 232 232 234 235 235 237 241 243 244 245 248
269 274 274 255 265 280 276 264 244 239 213 192 207 247 255 255 259 249 242 239 239 253 258 260 258 242 220 218 234 247 241 231 230 219 206 209 213 211 216 217 214 214 215 215 215 213 211 210 211 211 210 213 216 215 214 216 215 213 216 216 216 216 216 219 220 218 217 217 217 219 218 216 215 215 215 216 219 221 222 224 225 226 226 226 228 227 228 230 231 233 234 234 237 242 244 246 250
243 242 265 263 272 285 285 279 229 230 225 196 207 237 259 254 250 242 243 247 248 254 259 261 263 253 234 223 218 234 243 230 223 218 209 209 215 215 215 217 217 215 215 216 215 214 213 213 211 211 212 214 217 217 216 219 220 218 219 220 219 219 220 221 220 218 216 216 217 220 219 218 217 216 216 216 218 221 222 224 225 225 224 224 225 225 226 228 227 230 232 232 234 240 243 246 251
250 240 255 257 264 278 287 295 232 234 236 212 213 231 252 253 254 262 257 252 246 245 254 259 263 262 251 243 231 229 241 239 221 201 201 207 213 217 215 215 218 216 216 216 216 216 214 213 211 210 212 215 218 219 217 220 223 223 224 225 224 224 225 224 221 219 218 217 218 219 219 219 219 218 218 218 219 222 223 224 225 223 223 223 224 225 226 227 225 226 230 231 233 236 240 243 247
280 268 265 259 256 275 285 286 318 312 275 238 225 232 247 255 259 264 260 259 255 245 253 260 263 267 263 256 248 237 236 244 240 201 191 202 208 210 211 212 215 217 217 216 217 218 216 212 210 213 216 216 218 220 220 222 223 224 226 228 228 229 229 228 225 223 221 221 221 220 220 220 221 220 219 219 221 222 223 225 224 224 224 223 224 225 225 225 224 224 227 229 232 234 236 238 243
283 276 270 269 262 273 281 276 289 308 292 258 243 245 253 257 259 259 253 254 259 260 260 261 264 270 271 266 259 251 243 246 252 214 185 196 206 201 199 204 210 215 217 217 218 219 219 217 212 213 216 216 214 215 219 222 222 223 225 226 227 228 228 228 226 224 223 223 222 222 221 222 223 223 221 220 221 223 224 225 224 223 223 222 223 223 223 223 222 224 225 227 228 232 237 238 240
280 275 264 262 262 269 278 281 270 265 277 267 253 256 260 261 262 262 261 254 256 262 263 261 260 262 266 267 264 260 254 247 248 219 190 196 208 203 195 196 202 209 216 219 218 219 220 220 219 215 213 212 209 207 210 213 214 216 219 221 223 225 226 226 226 226 224 224 223 222 223 225 225 226 225 222 223 225 226 225 224 224 222 222 223 225 227 228 227 226 226 226 226 230 235 238 238
267 265 262 255 252 274 286 284 268 230 239 267 262 262 262 263 266 265 265 258 253 259 264 265 263 261 261 263 265 264 261 253 215 215 205 204 211 205 197 194 198 204 210 217 219 220 221 221 223 225 219 212 207 206 208 209 210 211 214 218 222 225 225 225 226 225 225 225 223 222 224 226 226 229 230 228 227 227 227 227 226 226 225 225 227 231 234 236 235 230 228 228 227 230 234 236 235
243 248 259 258 269 306 302 284 266 237 229 258 268 271 268 267 268 266 265 261 256 257 261 264 267 267 264 261 264 263 259 252 235 228 215 212 216 207 196 190 196 204 205 211 220 223 222 221 223 227 226 222 217 214 212 214 216 215 217 221 224 227 228 228 228 226 225 225 225 224 225 226 228 230 232 237 237 232 229 231 230 230 230 231 233 235 238 238 237 234 233 232 229 233 236 234 232
232 242 256 260 359 339 304 316 332 302 268 264 279 280 273 272 268 262 261 262 258 254 255 257 262 267 269 270 272 272 267 254 239 233 221 215 214 209 196 185 193 204 203 206 215 217 218 221 222 223 226 227 227 225 221 220 222 220 223 227 229 233 235 233 233 231 228 225 226 226 228 232 236 236 238 243 242 236 235 236 236 236 236 237 238 237 237 237 235 232 232 231 228 229 233 233 232
234 245 254 243 28 292 279 301 321 301 265 248 272 274 268 267 262 259 259 263 261 256 256 255 255 262 270 274 273 272 273 269 250 234 224 214 210 215 210 193 194 198 198 207 215 215 214 217 219 222 226 230 232 233 232 228 226 225 227 230 232 236 240 239 237 236 233 231 232 235 238 241 242 244 245 243 239 239 242 241 240 239 237 238 239 238 236 236 235 233 233 232 231 230 231 234 235
233 239 251 255 293 278 281 291 288 263 225 204 225 256 266 254 245 261 289 288 277 271 270 266 260 260 267 275 287 305 316 325 332 320 293 270 252 245 237 216 202 196 198 210 218 219 219 218 219 223 227 232 235 238 238 233 229 228 229 231 232 234 237 237 237 238 239 239 240 243 245 245 245 246 243 237 238 243 243 241 240 239 238 238 240 238 235 235 235 234 233 234 234 232 232 238 239
270 208 213 233 266 272 286 290 259 228 217 157 186 235 251 38 327 1 352 319 306 287 274 277 281 287 303 326 359 21 25 21 21 21 16 6 352 338 305 285 240 213 214 221 221 222 224 225 224 228 232 234 236 238 240 237 233 231 230 232 234 237 239 240 238 238 241 242 244 246 245 245 247 245 237 233 240 244 240 239 240 239 239 240 240 237 234 233 233 233 233 233 232 230 228 235 239
322 48 200 231 256 264 291 288 245 245 323 119 198 227 252 283 335 22 359 332 346 347 347 7 12 20 28 32 35 37 37 38 38 34 32 28 19 19 14 358 320 237 236 232 221 217 228 233 230 230 236 240 241 242 243 241 238 237 234 234 236 238 241 244 242 240 241 242 243 245 246 246 247 245 241 238 239 239 237 238 239 239 239 239 237 235 234 234 232 233 234 232 229 228 227 230 234
332 360 253 244 266 274 298 279 248 265 262 202 182 196 239 270 11 23 351 349 15 37 46 43 38 38 41 40 39 39 41 43 44 38 34 32 29 32 35 32 24 330 236 223 210 206 226 235 226 228 245 252 251 249 247 243 239 239 238 238 241 242 242 243 243 242 242 240 241 242 243 244 244 246 247 245 242 240 239 237 237 236 236 237 236 235 236 235 232 233 232 228 226 228 228 228 229
327 332 264 245 273 296 300 278 246 220 226 232 121 177 225 284 41 359 2 14 16 37 49 47 44 42 40 39 36 34 36 38 39 36 32 28 25 30 41 44 39 33 28 252 214 211 223 224 223 248 270 270 262 254 250 247 243 240 241 241 242 245 245 243 242 241 240 238 239 240 240 240 239 241 244 244 243 242 243 241 238 235 235 237 236 235 236 234 232 231 230 230 230 227 226 227 227
292 299 273 261 261 278 317 306 237 164 143 42 36 200 213 184 60 45 47 37 32 48 53 45 43 41 37 36 33 31 33 33 33 33 29 24 20 21 32 39 38 37 37 33 16 273 245 240 246 265 277 279 272 262 256 253 247 243 243 242 242 244 245 243 240 239 237 235 237 239 238 239 237 235 236 239 238 238 240 240 238 235 236 237 235 233 234 233 232 232 232 234 233 227 225 227 227
267 290 292 294 251 215 210 182 248 145 84 29 336 215 201 178 61 52 52 49 47 51 49 44 42 40 38 35 31 31 31 30 30 28 26 23 19 17 20 25 26 28 30 29 26 13 343 307 289 282 281 286 285 278 271 262 252 245 243 243 243 244 244 242 239 238 237 235 236 237 236 236 235 232 232 235 235 232 232 235 234 233 233 234 233 233 233 232 233 233 232 232 230 228 227 225 225
356 357 318 320 321 351 58 87 358 63 72 19 353 204 170 98 59 51 52 50 49 50 50 48 44 42 39 34 30 30 29 28 28 25 23 21 18 16 13 13 16 19 18 16 17 17 12 4 354 336 314 306 298 289 281 268 255 247 243 241 243 244 244 242 241 242 243 241 238 235 232 231 231 230 230 233 234 230 227 230 231 231 231 231 232 234 235 234 232 231 229 229 228 228 226 222 223
358 0 345 353 8 14 25 33 7 41 51 24 14 234 122 84 59 42 48 47 46 51 50 46 45 44 41 35 32 30 28 28 26 25 24 21 17 14 12 11 11 13 13 10 11 12 11 11 9 3 350 338 322 301 288 276 262 251 246 243 243 243 243 243 244 245 246 246 244 239 234 233 232 231 232 234 233 231 229 230 231 231 231 232 232 232 233 232 229 228 228 227 227 227 227 225 225
336 337 331 12 22 5 7 4 351 350 6 25 19 302 46 91 91 36 39 43 43 47 46 43 45 43 40 37 33 29 26 23 22 23 23 22 18 14 12 13 11 10 11 10 9 8 8 9 9 6 1 355 347 329 307 292 282 271 261 253 248 246 245 245 246 246 245 246 247 243 238 238 238 238 240 242 240 237 237 239 237 232 231 232 233 231 229 229 228 227 227 227 227 227 227 227 226
329 327 313 13 8 328 317 326 320 312 329 38 45 70 60 98 116 60 19 33 35 34 35 35 35 34 35 35 31 27 22 18 17 17 19 20 20 17 14 12 12 11 11 11 10 8 7 6 5 4 3 2 359 351 335 314 300 291 283 272 264 259 255 251 249 248 247 247 248 247 243 241 241 242 244 244 244 244 244 245 242 237 232 231 232 232 230 228 227 226 226 226 226 225 223 223 225
303 340 1 340 314 270 307 315 245 272 18 81 63 101 112 146 128 43 22 27 25 24 28 28 27 27 29 30 26 22 20 18 17 16 17 18 19 20 18 15 13 11 11 11 11 10 9 7 5 4 3 3 3 360 354 342 324 309 297 287 280 274 269 263 257 253 252 252 252 253 252 247 245 247 246 245 245 245 246 245 243 239 236 233 231 231 230 227 225 224 223 223 223 223 222 223 225
339 9 352 311 268 211 309 333 303 318 23 98 87 121 151 170 143 20 21 24 19 19 22 23 25 25 25 23 20 18 17 17 19 20 18 17 18 19 19 18 16 13 11 10 10 11 11 10 8 7 4 3 2 360 358 354 345 332 316 302 292 284 277 272 267 263 261 260 259 259 257 253 250 250 249 247 247 246 246 245 241 235 232 232 230 230 229 226 224 223 223 223 223 221 221 222 223
58 24 330 314 352 16 351 355 347 345 350 9 35 53 68 79 65 24 27 27 18 17 20 22 24 22 21 18 15 16 17 18 21 21 19 17 16 15 15 15 15 14 12 9 7 8 10 10 9 9 6 4 3 1 360 357 354 346 335 324 311 296 285 278 274 271 266 263 263 263 259 256 254 253 252 250 247 246 245 244 242 239 235 231 228 229 228 225 223 223 223 223 221 219 220 222 223
85 307 357 11 358 346 9 8 328 336 337 342 6 17 51 64 64 54 48 39 27 24 24 26 23 19 17 15 12 14 17 20 22 20 19 17 14 13 11 10 10 10 10 9 7 6 6 5 5 5 3 2 3 2 0 358 354 351 347 341 332 317 301 290 283 278 272 264 261 261 260 258 258 256 253 249 244 243 244 244 244 244 239 233 228 226 225 224 224 223 223 222 220 218 219 221 224
20 24 23 16 357 316 347 11 19 353 332 334 338 354 80 82 63 60 57 47 39 33 29 31 24 17 15 12 11 14 17 20 17 16 15 12 11 11 9 8 6 6 7 8 7 5 3 2 1 1 360 360 360 359 358 356 353 351 349 347 345 337 322 308 296 287 281 273 266 263 262 262 261 258 254 251 248 245 245 246 248 247 243 238 235 231 224 222 224 223 222 222 220 217 218 220 222
28 38 32 15 14 8 322 6 53 2 324 333 318 314 87 103 65 56 57 52 48 38 31 29 22 17 13 8 11 16 19 18 13 12 11 8 8 6 5 5 5 4 4 4 3 3 1 0 359 357 357 357 356 355 355 353 351 349 349 350 351 348 340 330 315 300 289 282 277 272 269 267 265 262 259 256 255 252 248 247 248 246 243 240 239 235 228 221 222 225 223 221 220 217 218 219 220